Webb City, MO

3:47 AM CDT on August 25, 2016 (GMT -0500)
Joplin Regional

Weather History for KJLN - August, 2014

Change the Weather History Date:

Monday, August 11, 2014

  Actual Average Record
Temperature  
Mean Temperature 75 °F 80 °F  
Max Temperature 87 °F 92 °F 104 °F (1999)
Min Temperature 63 °F 69 °F 54 °F (1967)
Degree Days  
Heating Degree Days 0 0  
Month to date heating degree days 0 0  
Since 1 June heating degree days 3 5  
Since 1 July heating degree days 1 0  
Cooling Degree Days 10 16  
Month to date cooling degree days 144 176  
Year to date cooling degree days 990 1147  
Since 1 June cooling degree days 777 967  
Growing Degree Days 25 (Base 50)    
Moisture  
Dew Point 66 °F    
Average Humidity 76    
Maximum Humidity 100    
Minimum Humidity 51    
Precipitation  
Precipitation T in 0.10 in 1.30 in (1982)
Month to date precipitation 1.48 1.11  
Year to date precipitation 15.40 28.73  
Sea Level Pressure  
Sea Level Pressure 30.03 in    
Wind  
Wind Speed 6 mph (NNW)    
Max Wind Speed 18 mph    
Max Gust Speed 23 mph    
Visibility 8 miles    
Events Fog    
T = Trace of Precipitation, MM = Missing Value Source: NWS Daily Summary

Daily Weather History Graph

Daily Weather History Graph

Search for Another Location

Airport or City:

Trip Planner

Search our weather history database for the weather conditions in past years. The results will help you decide how hot, cold, wet, or windy it might be!

Date:

Astronomy

Aug. 11, 2014 Rise Set
Actual Time 6:31 AM CDT 8:14 PM CDT
Civil Twilight 6:03 AM CDT 8:42 PM CDT
Nautical Twilight 5:29 AM CDT 9:16 PM CDT
Astronomical Twilight 4:53 AM CDT 9:51 PM CDT
Moon 8:46 PM CDT (8/11) 7:34 AM CDT (8/11)
Length of Visible Light 14h 39m
Length of Day
13h 43m
Full, 99% of the Moon is Illuminated
Aug 11
Full
Aug 17
Last Quarter
Aug 25
New
Sep 2
First Quarter
Sep 8
Full

Hourly Weather History & Observations

Time (CDT) Temp. Heat Index Dew Point Humidity Pressure Visibility Wind Dir Wind Speed Gust Speed Precip Events Conditions
12:33 AM 70.0 °F - 69.1 °F 97% 30.04 in 10.0 mi North 5.8 mph - N/A   Partly Cloudy
12:53 AM 70.0 °F - 69.1 °F 97% 30.01 in 10.0 mi North 9.2 mph - N/A   Clear
1:53 AM 68.0 °F - 68.0 °F 100% 30.01 in 10.0 mi NNW 4.6 mph - N/A   Clear
2:53 AM 66.9 °F - 66.9 °F 100% 30.01 in 10.0 mi NW 4.6 mph - N/A   Clear
3:35 AM 66.9 °F - 66.9 °F 100% 30.03 in 10.0 mi NW 4.6 mph - N/A   Partly Cloudy
3:53 AM 66.9 °F - 66.9 °F 100% 30.00 in 8.0 mi NW 4.6 mph - N/A   Partly Cloudy
4:28 AM 66.9 °F - 66.9 °F 100% 30.02 in 7.0 mi Calm Calm - N/A   Mostly Cloudy
4:53 AM 66.9 °F - 66.9 °F 100% 30.00 in 6.0 mi Calm Calm - N/A   Overcast
5:30 AM 66.9 °F - 66.9 °F 100% 30.03 in 4.0 mi NNW 5.8 mph - N/A   Overcast
5:37 AM 66.9 °F - 66.9 °F 100% 30.03 in 4.0 mi NNW 4.6 mph - N/A   Overcast
5:53 AM 66.9 °F - 66.9 °F 100% 30.01 in 2.0 mi Variable 4.6 mph - N/A   Overcast
6:12 AM 66.9 °F - 66.9 °F 100% 30.04 in 0.8 mi Calm Calm - N/A   Mist
6:53 AM 66.9 °F - 66.9 °F 100% 30.02 in 0.2 mi Calm Calm - N/A Fog Fog
7:53 AM 68.0 °F - 68.0 °F 100% 30.04 in 0.8 mi Variable 4.6 mph - N/A   Mostly Cloudy
8:04 AM 68.0 °F - 68.0 °F 100% 30.07 in 1.8 mi Variable 4.6 mph - N/A   Mostly Cloudy
8:13 AM 68.0 °F - 68.0 °F 100% 30.08 in 6.0 mi Variable 5.8 mph - N/A   Partly Cloudy
8:53 AM 73.0 °F - 69.1 °F 87% 30.06 in 10.0 mi Variable 5.8 mph - N/A   Partly Cloudy
9:53 AM 77.0 °F - 68.0 °F 74% 30.05 in 10.0 mi North 5.8 mph - N/A   Scattered Clouds
10:53 AM 79.0 °F - 69.1 °F 72% 30.05 in 10.0 mi North 5.8 mph - N/A   Mostly Cloudy
11:53 AM 80.1 °F 82.3 °F 66.9 °F 64% 30.05 in 10.0 mi NNW 8.1 mph - N/A   Mostly Cloudy
12:53 PM 82.0 °F 84.5 °F 66.9 °F 60% 30.04 in 10.0 mi NW 6.9 mph - N/A   Mostly Cloudy
1:53 PM 82.9 °F 85.4 °F 66.9 °F 58% 30.04 in 10.0 mi NNW 5.8 mph - N/A   Overcast
2:53 PM 84.2 °F 86.6 °F 66.2 °F 55% 30.05 in 10.0 mi North 9.2 mph - N/A   Partly Cloudy
3:53 PM 82.9 °F 85.0 °F 66.0 °F 56% 30.01 in 10.0 mi NNW 15.0 mph - N/A   Mostly Cloudy
4:53 PM 84.9 °F 86.6 °F 64.9 °F 51% 29.98 in 10.0 mi NNW 10.4 mph - N/A   Clear
5:53 PM 84.9 °F 86.6 °F 64.9 °F 51% 29.98 in 10.0 mi North 16.1 mph - N/A   Mostly Cloudy
6:53 PM 82.0 °F 83.8 °F 64.9 °F 56% 29.98 in 10.0 mi NNW 10.4 mph - N/A   Partly Cloudy
7:53 PM 79.0 °F - 64.0 °F 60% 30.00 in 10.0 mi North 10.4 mph - N/A   Partly Cloudy
8:53 PM 73.9 °F - 62.1 °F 66% 30.02 in 10.0 mi North 5.8 mph - N/A   Clear
9:53 PM 70.0 °F - 60.1 °F 71% 30.05 in 10.0 mi North 6.9 mph - N/A   Clear
10:53 PM 69.1 °F - 60.1 °F 73% 30.06 in 10.0 mi North 6.9 mph - N/A   Clear
11:53 PM 64.9 °F - 59.0 °F 81% 30.07 in 10.0 mi NNW 4.6 mph - N/A   Clear